HULIANWANG DIGUI-41

导读

HULIANWANG DIGUI-41卫星是中国于2025年7月30日发射的低轨互联网卫星。作为中国低轨卫星互联网建设的组成部分,该卫星将服务于天地一体化网络构建,解决地面网络覆盖盲区的通信问题,可为全球范围内陆地、海洋、空中场景提供宽带互联服务,助力实现全球无差别的泛在信息覆盖,支撑6G时代空天地海一体化通信网络建设。

Basic Information
目录编号:
65044
目录名称:
HULIANWANG DIGUI-41
国际标识:
2025-162B
轨道中心:
EARTH
卫星名称:
HULIANWANG DIGUI-41
卫星全名:
HULIANWANG DIGUI-41
卫星状态:
在轨 (已飞行412 天)
发射日期:
2025-07-30 UTC
国别 :
中国 (CN)
星等 :
--
This satellite is enrolled in the Space Conjunction Data Service (SCDS) and the current flight risk assessment level is: No High Risk
Orbit Information
数据来源 国际轨道数据 AOE轨道数据
星历时间 2026-09-15T22:21:56+0800
8小时前
查看轨道信息
2026-09-15T07:00:00+0800
23小时前
查看轨道信息
半长轴 7527.444km 7527.446km
偏心率 0.0000714 0.000104
轨道倾角 50.001° 50.002°
近地点辐角 263.668° 254.859°
升交点赤经 301.607° 303.905°
平近点角 96.412° 279.461°
近地点 1148.769km 1148.526km
远地点 1149.845km 1150.092km
周期 108.326分钟 108.326分钟
每日圈数 13.293259 13.293255
Detailed Information
使用方式:
暂无
2D Orbit Map
3D Orbit Map
Orbit Altitude Analysis Chart
Orbit Inclination Analysis Chart
Orbit Comprehensive Analysis Chart
View Comprehensive Chart
Miss Distance Evolution Trend with All Objects Subscribe to Flight Safety Assessment
Collision Probability Evolution Trend with All Objects Subscribe to Flight Safety Assessment